Powrót do katalogu

STARLINK-33823

AktywnyŁącznośćVLEO
NORAD 63661·PAYLOAD·🇺🇸 United States

Wystrzelony Apr 25, 2025 z Cape Canaveral Space Force Station

Loading…

Następne Przeloty (najbliższe 24 godziny)

TLE

ŚwieżeSource: CelesTrak SupGP

Epoka: Sep 15, 2026, 03:06 UTC

1 63661C 25083AD  26258.12965278  .00014725  00000+0  53326-3 0  2581
2 63661  43.0039  15.4610 0001507 264.4210 251.1383 15.27575680    12

Śledź STARLINK-33823 w czasie rzeczywistym z AllMySat

Download on the App Store